This is the latest recevied weather packets stored in our database for station/object W4MLN-3. If no packets are shown the sender has not sent any weather packets the latest 10 day(s).
| Time | Temp. | Humidity | Pressure | Rain* | Wind** | Luminosity | Snow |
|---|---|---|---|---|---|---|---|
| 1787453704 | 18.33° C | 91% | 1016.3 hPa | 0.25 mm | - | - | - |
| 1787453403 | 18.33° C | 91% | 1016.6 hPa | 0.25 mm | - | - | - |
| 1787453104 | 18.33° C | 91% | 1016.7 hPa | 0.25 mm | - | - | - |
| 1787452804 | 18.33° C | 92% | 1016.8 hPa | 0.25 mm | - | - | - |
| 1787452503 | 18.33° C | 91% | 1016.8 hPa | 0.25 mm | - | - | - |
| 1787452203 | 18.33° C | 91% | 1016.7 hPa | 0.25 mm | - | - | - |
| 1787451903 | 17.78° C | 92% | 1017.2 hPa | 1.02 mm | - | - | - |
| 1787451603 | 17.78° C | 92% | 1017.4 hPa | 2.54 mm | - | - | - |
| 1787451324 | 17.78° C | 91% | 1017.4 hPa | 2.79 mm | - | - | - |
| 1787451004 | 17.78° C | 90% | 1017.5 hPa | 2.79 mm | - | - | - |
| 1787450703 | 17.78° C | 89% | 1017.4 hPa | 2.54 mm | - | - | - |
| 1787450425 | 17.78° C | 89% | 1017.4 hPa | 2.54 mm | - | - | - |
| 1787450103 | 17.78° C | 87% | 1017.2 hPa | 2.54 mm | - | - | - |
| 1787449803 | 17.78° C | 86% | 1017.3 hPa | 2.54 mm | - | - | - |
| 1787449503 | 18.33° C | 85% | 1017.4 hPa | 2.54 mm | - | - | - |
| 1787449204 | 18.33° C | 83% | 1017.5 hPa | 2.54 mm | - | - | - |
| 1787448903 | 18.89° C | 81% | 1017.5 hPa | 2.54 mm | - | - | - |
| 1787448667 | 19.44° C | 81% | 1017.5 hPa | 2.54 mm | - | - | - |
| 1787448303 | 20.56° C | 76% | 1017.6 hPa | 1.78 mm | - | - | - |
| 1787448003 | 21.11° C | 79% | 1017.7 hPa | 0.25 mm | - | - | - |
| 1787447703 | 20.56° C | 79% | 1017.2 hPa | 0 mm | - | - | - |
| 1787447403 | 20.56° C | 79% | 1017.2 hPa | 0 mm | - | - | - |
| 1787447103 | 20.56° C | 80% | 1017 hPa | 0 mm | - | - | - |
| 1787446824 | 20.56° C | 79% | 1017.2 hPa | 0 mm | - | - | - |
| 1787446545 | 21.11° C | 80% | 1017 hPa | 0 mm | - | - | - |
* Rain latest hour (hover to see other rain measurements)
** Current wind speed in m/s (hover to see current wind gust speed)